QPF
0.00 0.00 0.00 0.01 0.05 0.04 0.02 0.01 0.00 0.00 0.00 0.00 0.00 0.01 0.02 0.04 0.07 0.06 0.03 0.01 0.01 0.02 0.03 0.05 0.09 0.16 0.19 0.15 0.10 0.07 0.07 0.09 0.16 0.23 0.35 0.25 0.18 0.16 0.15 0.14 0.14 0.16 0.16 0.15 0.13 0.11 0.10 0.09 0.09
0.00 0.00 0.01 0.03 0.04 0.03 0.03 0.02 0.02 0.01 0.00 0.00 0.00 0.00 0.01 0.01 0.01 0.01 0.02 0.01 0.01 0.02 0.03 0.04 0.09 0.17 0.22 0.19 0.11 0.08 0.07 0.10 0.13 0.16 0.23 0.23 0.20 0.18 0.17 0.16 0.16 0.17 0.16 0.15 0.13 0.10 0.09 0.10 0.09
0.00 0.00 0.01 0.03 0.01 0.01 0.02 0.02 0.02 0.01 0.01 0.00 0.01 0.00 0.01 0.01 0.01 0.01 0.01 0.01 0.01 0.01 0.01 0.03 0.07 0.14 0.21 0.21 0.14 0.09 0.08 0.09 0.11 0.12 0.15 0.19 0.20 0.24 0.26 0.22 0.19 0.18 0.16 0.14 0.12 0.11 0.12 0.10 0.07
0.00 0.01 0.01 0.01 0.00 0.01 0.01 0.02 0.01 0.02 0.01 0.00 0.01 0.01 0.00 0.00 0.00 0.00 0.00 0.01 0.00 0.00 0.00 0.01 0.04 0.07 0.12 0.17 0.15 0.11 0.09 0.09 0.09 0.10 0.14 0.18 0.19 0.25 0.30 0.24 0.19 0.17 0.17 0.16 0.14 0.13 0.11 0.08 0.06
0.01 0.01 0.00 0.00 0.00 0.01 0.02 0.01 0.01 0.02 0.02 0.01 0.00 0.01 0.01 0.01 0.00 0.00 0.01 0.01 0.00 0.00 0.00 0.00 0.01 0.03 0.08 0.13 0.13 0.13 0.11 0.09 0.10 0.12 0.17 0.20 0.22 0.24 0.26 0.23 0.21 0.18 0.18 0.19 0.17 0.12 0.08 0.06 0.05
0.01 0.00 0.00 0.00 0.00 0.00 0.00 0.00 0.01 0.02 0.01 0.01 0.01 0.01 0.02 0.02 0.00 0.00 0.00 0.01 0.00 0.00 0.00 0.00 0.00 0.01 0.04 0.09 0.12 0.11 0.11 0.10 0.10 0.10 0.12 0.14 0.15 0.16 0.16 0.17 0.18 0.19 0.19 0.17 0.14 0.12 0.07 0.05 0.04
0.01 0.00 0.00 0.00 0.00 0.00 0.00 0.01 0.01 0.00 0.01 0.01 0.00 0.00 0.01 0.02 0.00 0.00 0.00 0.01 0.00 0.00 0.00 0.00 0.00 0.01 0.02 0.04 0.07 0.08 0.08 0.08 0.07 0.07 0.08 0.09 0.09 0.09 0.09 0.12 0.14 0.15 0.14 0.13 0.11 0.08 0.06 0.06 0.05
0.00 0.00 0.00 0.00 0.00 0.00 0.00 0.00 0.00 0.00 0.00 0.00 0.00 0.00 0.01 0.01 0.00 0.00 0.00 0.01 0.00 0.01 0.02 0.01 0.01 0.01 0.01 0.01 0.03 0.04 0.05 0.07 0.06 0.06 0.06 0.06 0.06 0.05 0.06 0.07 0.07 0.08 0.08 0.07 0.05 0.05 0.06 0.05 0.05
0.00 0.00 0.00 0.00 0.00 0.00 0.00 0.00 0.00 0.00 0.00 0.00 0.00 0.00 0.00 0.00 0.00 0.00 0.00 0.01 0.00 0.00 0.02 0.03 0.01 0.01 0.01 0.00 0.01 0.01 0.03 0.05 0.08 0.07 0.07 0.07 0.08 0.05 0.05 0.03 0.03 0.03 0.03 0.03 0.04 0.04 0.04 0.04 0.03
0.00 0.00 0.00 0.00 0.00 0.00 0.00 0.00 0.00 0.02 0.02 0.02 0.01 0.00 0.00 0.00 0.00 0.00 0.00 0.01 0.01 0.01 0.01 0.01 0.02 0.01 0.02 0.01 0.02 0.03 0.02 0.04 0.08 0.09 0.08 0.08 0.09 0.07 0.04 0.03 0.02 0.02 0.02 0.02 0.02 0.02 0.03 0.03 0.03
0.00 0.00 0.00 0.00 0.00 0.00 0.00 0.00 0.00 0.01 0.02 0.02 0.01 0.00 0.00 0.00 0.00 0.00 0.00 0.00 0.00 0.00 0.00 0.00 0.00 0.00 0.01 0.01 0.02 0.03 0.03 0.05 0.04 0.05 0.05 0.05 0.05 0.05 0.04 0.04 0.03 0.03 0.03 0.03 0.02 0.03 0.07 0.05 0.03
0.00 0.00 0.00 0.00 0.00 0.00 0.00 0.00 0.00 0.00 0.00 0.00 0.00 0.00 0.00 0.00 0.00 0.00 0.00 0.00 0.00 0.00 0.01 0.00 0.00 0.01 0.01 0.01 0.02 0.02 0.03 0.03 0.03 0.04 0.04 0.03 0.05 0.06 0.07 0.05 0.05 0.05 0.05 0.05 0.05 0.04 0.03 0.03 0.01
0.00 0.00 0.00 0.00 0.00 0.00 0.00 0.00 0.00 0.00 0.00 0.00 0.00 0.00 0.00 0.00 0.00 0.00 0.00 0.00 0.00 0.00 0.01 0.00 0.01 0.01 0.01 0.02 0.04 0.02 0.02 0.03 0.03 0.03 0.03 0.03 0.05 0.06 0.07 0.06 0.06 0.06 0.05 0.04 0.04 0.03 0.02 0.02 0.01
0.00 0.00 0.00 0.00 0.00 0.00 0.00 0.00 0.00 0.00 0.00 0.00 0.00 0.00 0.00 0.00 0.00 0.00 0.00 0.00 0.00 0.00 0.00 0.01 0.02 0.01 0.02 0.02 0.02 0.03 0.03 0.06 0.04 0.04 0.03 0.03 0.05 0.08 0.08 0.07 0.06 0.05 0.04 0.03 0.03 0.02 0.03 0.03 0.02
0.01 0.00 0.00 0.00 0.00 0.00 0.00 0.00 0.00 0.00 0.00 0.00 0.00 0.00 0.00 0.00 0.00 0.00 0.00 0.00 0.00 0.00 0.00 0.01 0.01 0.01 0.02 0.03 0.03 0.04 0.03 0.03 0.04 0.04 0.05 0.03 0.04 0.08 0.08 0.08 0.07 0.06 0.04 0.03 0.03 0.03 0.03 0.04 0.05
0.00 0.01 0.01 0.00 0.00 0.00 0.00 0.00 0.00 0.00 0.00 0.00 0.00 0.00 0.00 0.00 0.00 0.00 0.00 0.00 0.00 0.00 0.01 0.01 0.01 0.01 0.02 0.03 0.05 0.05 0.04 0.04 0.03 0.03 0.04 0.03 0.06 0.06 0.07 0.08 0.07 0.06 0.05 0.04 0.05 0.05 0.05 0.07 0.07
0.00 0.00 0.00 0.00 0.00 0.00 0.00 0.00 0.00 0.00 0.00 0.00 0.00 0.00 0.00 0.00 0.00 0.00 0.00 0.00 0.00 0.01 0.01 0.01 0.01 0.03 0.04 0.03 0.05 0.05 0.06 0.05 0.04 0.03 0.04 0.04 0.03 0.03 0.06 0.09 0.08 0.07 0.07 0.05 0.04 0.07 0.09 0.10 0.08
0.01 0.00 0.00 0.00 0.00 0.00 0.00 0.00 0.00 0.00 0.00 0.00 0.00 0.00 0.00 0.00 0.00 0.00 0.00 0.00 0.00 0.01 0.01 0.01 0.02 0.03 0.04 0.06 0.08 0.09 0.06 0.05 0.04 0.05 0.05 0.04 0.05 0.03 0.05 0.07 0.07 0.07 0.09 0.08 0.08 0.09 0.12 0.11 0.09
0.00 0.00 0.00 0.00 0.01 0.00 0.00 0.00 0.00 0.00 0.00 0.00 0.00 0.00 0.00 0.01 0.01 0.00 0.00 0.00 0.01 0.02 0.01 0.01 0.02 0.04 0.05 0.08 0.10 0.09 0.08 0.06 0.04 0.04 0.04 0.04 0.04 0.03 0.08 0.07 0.08 0.06 0.08 0.10 0.10 0.14 0.16 0.13 0.09
0.00 0.00 0.00 0.00 0.00 0.00 0.01 0.01 0.00 0.00 0.00 0.00 0.00 0.00 0.00 0.00 0.03 0.01 0.00 0.00 0.00 0.01 0.01 0.01 0.01 0.03 0.04 0.05 0.07 0.08 0.08 0.07 0.06 0.03 0.03 0.03 0.03 0.05 0.07 0.10 0.10 0.09 0.11 0.11 0.11 0.14 0.13 0.12 0.10
0.01 0.00 0.00 0.00 0.00 0.01 0.01 0.01 0.00 0.00 0.00 0.00 0.00 0.00 0.00 0.00 0.01 0.00 0.00 0.01 0.00 0.01 0.01 0.01 0.01 0.03 0.05 0.06 0.07 0.06 0.08 0.08 0.06 0.06 0.05 0.03 0.03 0.04 0.07 0.10 0.09 0.09 0.09 0.11 0.11 0.10 0.11 0.12 0.13
0.00 0.00 0.00 0.00 0.00 0.00 0.00 0.01 0.01 0.00 0.00 0.00 0.00 0.00 0.00 0.00 0.00 0.00 0.00 0.00 0.00 0.01 0.00 0.01 0.01 0.02 0.04 0.04 0.05 0.04 0.06 0.08 0.08 0.07 0.07 0.05 0.03 0.04 0.06 0.08 0.08 0.08 0.09 0.11 0.08 0.08 0.10 0.14 0.14
0.00 0.00 0.00 0.00 0.01 0.02 0.02 0.01 0.01 0.00 0.00 0.00 0.00 0.00 0.00 0.00 0.00 0.00 0.00 0.00 0.00 0.00 0.00 0.00 0.01 0.02 0.02 0.03 0.03 0.05 0.06 0.07 0.07 0.05 0.07 0.08 0.07 0.05 0.05 0.08 0.09 0.09 0.11 0.12 0.08 0.08 0.08 0.10 0.10
0.00 0.00 0.00 0.01 0.02 0.03 0.03 0.02 0.01 0.01 0.01 0.01 0.00 0.00 0.00 0.00 0.00 0.00 0.00 0.00 0.00 0.00 0.00 0.00 0.00 0.01 0.01 0.01 0.02 0.04 0.04 0.06 0.07 0.05 0.06 0.07 0.08 0.08 0.07 0.08 0.09 0.10 0.12 0.13 0.11 0.09 0.08 0.09 0.09
0.00 0.00 0.00 0.01 0.02 0.02 0.03 0.02 0.01 0.01 0.01 0.01 0.00 0.00 0.00 0.00 0.00 0.00 0.00 0.00 0.00 0.00 0.00 0.00 0.00 0.01 0.01 0.01 0.02 0.03 0.03 0.04 0.04 0.03 0.04 0.05 0.07 0.09 0.08 0.07 0.08 0.08 0.09 0.09 0.10 0.09 0.10 0.10 0.09
0.00 0.00 0.01 0.01 0.01 0.01 0.01 0.01 0.00 0.00 0.00 0.00 0.00 0.00 0.00 0.00 0.00 0.00 0.00 0.00 0.00 0.00 0.00 0.00 0.00 0.01 0.01 0.02 0.03 0.04 0.04 0.04 0.04 0.04 0.02 0.04 0.05 0.06 0.05 0.05 0.06 0.06 0.06 0.06 0.08 0.08 0.08 0.09 0.08
0.00 0.00 0.01 0.00 0.00 0.00 0.00 0.00 0.00 0.00 0.00 0.00 0.00 0.00 0.00 0.00 0.00 0.00 0.00 0.00 0.00 0.00 0.00 0.00 0.01 0.01 0.01 0.02 0.02 0.03 0.02 0.02 0.03 0.02 0.02 0.03 0.04 0.04 0.03 0.04 0.05 0.04 0.04 0.05 0.06 0.06 0.06 0.06 0.05
0.00 0.00 0.00 0.01 0.01 0.00 0.00 0.01 0.01 0.01 0.01 0.00 0.00 0.00 0.00 0.00 0.00 0.00 0.00 0.00 0.00 0.00 0.00 0.00 0.00 0.01 0.00 0.01 0.01 0.02 0.03 0.02 0.02 0.02 0.02 0.02 0.04 0.05 0.04 0.04 0.04 0.04 0.04 0.05 0.06 0.05 0.04 0.04 0.04
0.00 0.00 0.00 0.00 0.01 0.01 0.01 0.01 0.02 0.02 0.02 0.01 0.00 0.00 0.00 0.00 0.00 0.00 0.00 0.00 0.00 0.00 0.00 0.00 0.00 0.00 0.00 0.00 0.01 0.02 0.02 0.02 0.01 0.01 0.01 0.03 0.04 0.04 0.04 0.04 0.04 0.03 0.03 0.02 0.02 0.02 0.03 0.03 0.04
0.00 0.00 0.00 0.00 0.00 0.00 0.01 0.02 0.01 0.01 0.01 0.00 0.00 0.01 0.01 0.00 0.00 0.00 0.00 0.00 0.00 0.00 0.00 0.00 0.00 0.00 0.00 0.00 0.01 0.02 0.02 0.02 0.02 0.02 0.02 0.04 0.04 0.05 0.04 0.04 0.03 0.02 0.02 0.02 0.02 0.01 0.02 0.02 0.02
MSLP
1004.27 1005.06 1006.10 1007.26 1008.39 1009.35 1010.07 1010.52 1010.74 1010.80 1010.81 1010.84 1010.93 1011.09 1011.28 1011.46 1011.56 1011.58 1011.52 1011.43 1011.36 1011.37 1011.49 1011.70 1011.99 1012.27 1012.48 1012.58 1012.55 1012.41 1012.22 1012.03 1011.93 1011.93 1012.04 1012.24 1012.46 1012.64 1012.76 1012.77 1012.70 1012.58 1012.47 1012.39 1012.37 1012.43 1012.54 1012.68 1012.82
1004.51 1005.48 1006.66 1007.88 1008.99 1009.87 1010.46 1010.75 1010.80 1010.73 1010.62 1010.56 1010.60 1010.73 1010.91 1011.08 1011.21 1011.26 1011.25 1011.23 1011.26 1011.36 1011.58 1011.89 1012.25 1012.59 1012.84 1012.96 1012.93 1012.80 1012.61 1012.43 1012.34 1012.35 1012.47 1012.66 1012.88 1013.07 1013.18 1013.20 1013.15 1013.07 1012.99 1012.94 1012.95 1013.02 1013.11 1013.20 1013.29
1004.90 1006.03 1007.30 1008.54 1009.60 1010.37 1010.82 1010.95 1010.87 1010.67 1010.47 1010.35 1010.35 1010.45 1010.62 1010.78 1010.90 1010.96 1010.98 1011.00 1011.08 1011.26 1011.56 1011.96 1012.40 1012.81 1013.12 1013.29 1013.32 1013.22 1013.06 1012.91 1012.83 1012.84 1012.95 1013.11 1013.30 1013.45 1013.54 1013.56 1013.54 1013.49 1013.46 1013.47 1013.52 1013.59 1013.67 1013.72 1013.75
1005.37 1006.60 1007.92 1009.14 1010.13 1010.80 1011.11 1011.13 1010.94 1010.66 1010.41 1010.27 1010.25 1010.34 1010.48 1010.62 1010.72 1010.76 1010.77 1010.79 1010.90 1011.13 1011.48 1011.94 1012.46 1012.94 1013.32 1013.57 1013.66 1013.63 1013.53 1013.42 1013.36 1013.37 1013.45 1013.57 1013.70 1013.81 1013.87 1013.89 1013.88 1013.89 1013.92 1013.98 1014.07 1014.17 1014.23 1014.24 1014.20
1005.81 1007.10 1008.41 1009.59 1010.50 1011.07 1011.30 1011.24 1011.00 1010.70 1010.46 1010.32 1010.31 1010.40 1010.53 1010.65 1010.70 1010.70 1010.67 1010.68 1010.78 1011.02 1011.40 1011.90 1012.46 1012.99 1013.44 1013.76 1013.93 1013.98 1013.95 1013.89 1013.86 1013.88 1013.94 1014.02 1014.10 1014.16 1014.19 1014.20 1014.22 1014.27 1014.35 1014.48 1014.61 1014.72 1014.76 1014.72 1014.62
1006.13 1007.41 1008.68 1009.79 1010.62 1011.12 1011.30 1011.22 1011.00 1010.75 1010.56 1010.48 1010.51 1010.62 1010.75 1010.83 1010.85 1010.80 1010.73 1010.70 1010.78 1011.00 1011.38 1011.88 1012.45 1013.01 1013.49 1013.86 1014.09 1014.20 1014.24 1014.25 1014.26 1014.30 1014.35 1014.42 1014.47 1014.50 1014.51 1014.52 1014.55 1014.64 1014.77 1014.94 1015.10 1015.21 1015.24 1015.16 1014.99
1006.28 1007.50 1008.69 1009.70 1010.46 1010.91 1011.08 1011.04 1010.89 1010.73 1010.65 1010.66 1010.77 1010.92 1011.06 1011.13 1011.11 1011.03 1010.92 1010.86 1010.91 1011.10 1011.45 1011.93 1012.48 1013.02 1013.49 1013.86 1014.12 1014.28 1014.37 1014.44 1014.50 1014.58 1014.66 1014.73 1014.78 1014.80 1014.80 1014.82 1014.87 1014.98 1015.14 1015.33 1015.50 1015.61 1015.61 1015.50 1015.28
1006.27 1007.39 1008.45 1009.36 1010.03 1010.45 1010.64 1010.67 1010.63 1010.60 1010.65 1010.79 1010.99 1011.20 1011.36 1011.44 1011.42 1011.32 1011.20 1011.12 1011.15 1011.32 1011.63 1012.06 1012.56 1013.04 1013.47 1013.81 1014.05 1014.22 1014.34 1014.45 1014.57 1014.70 1014.82 1014.92 1015.00 1015.03 1015.05 1015.08 1015.14 1015.26 1015.43 1015.62 1015.79 1015.88 1015.86 1015.72 1015.48
1006.17 1007.14 1008.06 1008.84 1009.43 1009.82 1010.03 1010.15 1010.24 1010.36 1010.55 1010.82 1011.11 1011.39 1011.59 1011.69 1011.68 1011.59 1011.48 1011.42 1011.45 1011.61 1011.89 1012.27 1012.69 1013.10 1013.45 1013.72 1013.91 1014.06 1014.19 1014.32 1014.48 1014.66 1014.84 1014.99 1015.11 1015.18 1015.22 1015.26 1015.33 1015.45 1015.61 1015.78 1015.93 1016.01 1015.97 1015.82 1015.57
1006.06 1006.87 1007.64 1008.28 1008.77 1009.12 1009.37 1009.56 1009.77 1010.03 1010.36 1010.74 1011.12 1011.46 1011.71 1011.84 1011.86 1011.81 1011.73 1011.70 1011.76 1011.92 1012.19 1012.52 1012.87 1013.19 1013.45 1013.63 1013.76 1013.86 1013.97 1014.11 1014.30 1014.51 1014.74 1014.95 1015.11 1015.22 1015.29 1015.35 1015.42 1015.52 1015.66 1015.81 1015.93 1015.99 1015.95 1015.80 1015.58
1006.06 1006.72 1007.32 1007.81 1008.20 1008.50 1008.75 1009.01 1009.31 1009.68 1010.12 1010.59 1011.04 1011.43 1011.72 1011.89 1011.94 1011.93 1011.91 1011.93 1012.02 1012.21 1012.47 1012.78 1013.07 1013.32 1013.49 1013.59 1013.65 1013.69 1013.76 1013.89 1014.08 1014.32 1014.58 1014.82 1015.02 1015.17 1015.26 1015.33 1015.39 1015.48 1015.60 1015.72 1015.82 1015.87 1015.83 1015.71 1015.53
1006.27 1006.78 1007.21 1007.55 1007.82 1008.06 1008.29 1008.58 1008.94 1009.39 1009.90 1010.43 1010.94 1011.36 1011.67 1011.87 1011.96 1011.99 1012.02 1012.08 1012.22 1012.44 1012.71 1013.01 1013.27 1013.46 1013.58 1013.62 1013.62 1013.61 1013.64 1013.74 1013.91 1014.15 1014.41 1014.66 1014.87 1015.03 1015.14 1015.21 1015.28 1015.35 1015.45 1015.55 1015.64 1015.69 1015.68 1015.59 1015.45
1006.73 1007.10 1007.36 1007.55 1007.70 1007.84 1008.04 1008.33 1008.71 1009.20 1009.76 1010.33 1010.86 1011.30 1011.63 1011.83 1011.95 1012.01 1012.07 1012.18 1012.35 1012.60 1012.89 1013.18 1013.43 1013.61 1013.71 1013.72 1013.69 1013.65 1013.64 1013.70 1013.84 1014.04 1014.27 1014.50 1014.70 1014.86 1014.96 1015.03 1015.09 1015.16 1015.25 1015.35 1015.45 1015.51 1015.53 1015.49 1015.40
1007.40 1007.63 1007.74 1007.78 1007.80 1007.85 1008.00 1008.26 1008.65 1009.15 1009.73 1010.31 1010.85 1011.29 1011.62 1011.84 1011.96 1012.04 1012.12 1012.24 1012.43 1012.69 1012.99 1013.29 1013.55 1013.74 1013.85 1013.87 1013.84 1013.80 1013.78 1013.80 1013.89 1014.03 1014.21 1014.38 1014.54 1014.66 1014.75 1014.81 1014.88 1014.96 1015.06 1015.17 1015.29 1015.38 1015.44 1015.45 1015.41
1008.18 1008.28 1008.25 1008.14 1008.05 1008.02 1008.10 1008.33 1008.70 1009.20 1009.77 1010.36 1010.89 1011.34 1011.67 1011.89 1012.01 1012.09 1012.18 1012.30 1012.48 1012.73 1013.02 1013.33 1013.61 1013.83 1013.97 1014.04 1014.05 1014.02 1014.00 1014.00 1014.03 1014.11 1014.20 1014.30 1014.39 1014.47 1014.53 1014.59 1014.66 1014.76 1014.89 1015.04 1015.19 1015.33 1015.43 1015.48 1015.49
1008.94 1008.90 1008.74 1008.53 1008.34 1008.23 1008.27 1008.47 1008.82 1009.30 1009.85 1010.42 1010.95 1011.39 1011.73 1011.95 1012.09 1012.18 1012.25 1012.36 1012.52 1012.74 1013.02 1013.32 1013.61 1013.86 1014.05 1014.18 1014.24 1014.26 1014.25 1014.23 1014.22 1014.22 1014.23 1014.25 1014.27 1014.30 1014.33 1014.39 1014.47 1014.60 1014.77 1014.95 1015.15 1015.34 1015.49 1015.58 1015.63
1009.52 1009.38 1009.12 1008.82 1008.58 1008.44 1008.44 1008.61 1008.93 1009.38 1009.90 1010.44 1010.95 1011.39 1011.74 1011.98 1012.14 1012.25 1012.33 1012.42 1012.56 1012.75 1012.98 1013.26 1013.55 1013.83 1014.07 1014.25 1014.38 1014.45 1014.47 1014.45 1014.40 1014.34 1014.27 1014.21 1014.16 1014.14 1014.15 1014.21 1014.31 1014.47 1014.68 1014.91 1015.15 1015.38 1015.57 1015.71 1015.79
1009.84 1009.60 1009.29 1008.98 1008.73 1008.59 1008.59 1008.74 1009.03 1009.42 1009.89 1010.38 1010.85 1011.27 1011.63 1011.91 1012.11 1012.25 1012.36 1012.46 1012.58 1012.74 1012.94 1013.19 1013.46 1013.74 1014.01 1014.25 1014.43 1014.55 1014.60 1014.59 1014.52 1014.42 1014.29 1014.17 1014.07 1014.01 1014.00 1014.06 1014.19 1014.38 1014.61 1014.88 1015.15 1015.41 1015.63 1015.81 1015.92
1009.84 1009.57 1009.28 1009.01 1008.83 1008.74 1008.77 1008.91 1009.14 1009.46 1009.82 1010.21 1010.61 1011.00 1011.35 1011.66 1011.92 1012.13 1012.30 1012.45 1012.58 1012.73 1012.90 1013.11 1013.36 1013.63 1013.90 1014.16 1014.38 1014.54 1014.63 1014.63 1014.56 1014.44 1014.28 1014.13 1013.99 1013.91 1013.89 1013.96 1014.10 1014.30 1014.55 1014.83 1015.11 1015.38 1015.62 1015.82 1015.97
1009.57 1009.34 1009.14 1009.01 1008.96 1008.98 1009.06 1009.19 1009.35 1009.54 1009.75 1009.99 1010.26 1010.57 1010.89 1011.22 1011.55 1011.85 1012.11 1012.34 1012.53 1012.70 1012.87 1013.06 1013.27 1013.51 1013.78 1014.04 1014.27 1014.46 1014.57 1014.59 1014.54 1014.42 1014.26 1014.09 1013.94 1013.86 1013.84 1013.90 1014.05 1014.25 1014.49 1014.75 1015.02 1015.27 1015.50 1015.70 1015.87
1009.13 1009.03 1009.02 1009.10 1009.24 1009.41 1009.57 1009.69 1009.75 1009.77 1009.77 1009.79 1009.87 1010.03 1010.28 1010.61 1010.99 1011.40 1011.78 1012.13 1012.42 1012.65 1012.85 1013.03 1013.22 1013.43 1013.67 1013.91 1014.15 1014.34 1014.47 1014.52 1014.48 1014.38 1014.24 1014.08 1013.95 1013.86 1013.85 1013.92 1014.05 1014.23 1014.44 1014.66 1014.88 1015.08 1015.27 1015.45 1015.63
1008.68 1008.78 1009.03 1009.39 1009.78 1010.14 1010.39 1010.48 1010.42 1010.22 1009.95 1009.69 1009.51 1009.46 1009.58 1009.87 1010.30 1010.80 1011.32 1011.81 1012.23 1012.56 1012.82 1013.03 1013.22 1013.41 1013.61 1013.83 1014.05 1014.24 1014.38 1014.45 1014.44 1014.37 1014.26 1014.13 1014.02 1013.95 1013.94 1014.00 1014.11 1014.25 1014.41 1014.56 1014.70 1014.84 1014.96 1015.10 1015.25
1008.36 1008.72 1009.28 1009.94 1010.61 1011.16 1011.49 1011.56 1011.35 1010.91 1010.34 1009.75 1009.26 1008.96 1008.90 1009.11 1009.53 1010.11 1010.76 1011.40 1011.96 1012.43 1012.78 1013.04 1013.25 1013.43 1013.61 1013.81 1014.00 1014.19 1014.34 1014.43 1014.45 1014.42 1014.34 1014.24 1014.16 1014.11 1014.10 1014.15 1014.23 1014.32 1014.42 1014.50 1014.55 1014.60 1014.64 1014.70 1014.81
1008.27 1008.90 1009.76 1010.73 1011.65 1012.38 1012.80 1012.82 1012.47 1011.78 1010.90 1009.97 1009.15 1008.58 1008.32 1008.40 1008.79 1009.41 1010.16 1010.93 1011.64 1012.23 1012.69 1013.03 1013.28 1013.47 1013.65 1013.83 1014.02 1014.20 1014.35 1014.46 1014.51 1014.51 1014.47 1014.40 1014.34 1014.31 1014.31 1014.34 1014.39 1014.44 1014.48 1014.48 1014.46 1014.42 1014.37 1014.35 1014.39
1008.42 1009.30 1010.42 1011.64 1012.77 1013.65 1014.12 1014.11 1013.62 1012.71 1011.55 1010.32 1009.21 1008.36 1007.88 1007.81 1008.13 1008.76 1009.56 1010.43 1011.26 1011.97 1012.54 1012.96 1013.26 1013.49 1013.68 1013.87 1014.05 1014.24 1014.40 1014.53 1014.61 1014.64 1014.62 1014.58 1014.54 1014.52 1014.52 1014.54 1014.57 1014.59 1014.58 1014.54 1014.46 1014.34 1014.22 1014.12 1014.07
1008.77 1009.82 1011.12 1012.50 1013.77 1014.74 1015.24 1015.20 1014.62 1013.55 1012.19 1010.73 1009.38 1008.30 1007.63 1007.42 1007.64 1008.22 1009.04 1009.95 1010.85 1011.65 1012.30 1012.79 1013.15 1013.43 1013.65 1013.86 1014.06 1014.26 1014.44 1014.59 1014.70 1014.75 1014.76 1014.74 1014.71 1014.69 1014.69 1014.70 1014.73 1014.74 1014.72 1014.65 1014.54 1014.39 1014.22 1014.06 1013.93
1009.22 1010.33 1011.70 1013.14 1014.46 1015.46 1015.97 1015.92 1015.29 1014.16 1012.70 1011.11 1009.62 1008.40 1007.58 1007.24 1007.36 1007.87 1008.63 1009.53 1010.44 1011.26 1011.96 1012.50 1012.91 1013.23 1013.50 1013.74 1013.98 1014.21 1014.42 1014.60 1014.72 1014.80 1014.82 1014.82 1014.79 1014.78 1014.78 1014.80 1014.82 1014.85 1014.84 1014.80 1014.70 1014.55 1014.36 1014.17 1013.99
1009.66 1010.72 1012.03 1013.42 1014.70 1015.67 1016.19 1016.15 1015.55 1014.44 1013.00 1011.42 1009.90 1008.63 1007.74 1007.31 1007.32 1007.72 1008.39 1009.21 1010.06 1010.85 1011.54 1012.09 1012.53 1012.88 1013.19 1013.47 1013.75 1014.02 1014.27 1014.49 1014.65 1014.74 1014.79 1014.79 1014.78 1014.76 1014.77 1014.79 1014.84 1014.89 1014.93 1014.92 1014.87 1014.77 1014.61 1014.42 1014.22
1010.00 1010.92 1012.07 1013.31 1014.47 1015.38 1015.88 1015.89 1015.38 1014.40 1013.10 1011.64 1010.22 1009.01 1008.13 1007.64 1007.56 1007.83 1008.36 1009.04 1009.77 1010.47 1011.08 1011.60 1012.02 1012.39 1012.72 1013.04 1013.37 1013.69 1013.98 1014.24 1014.44 1014.57 1014.63 1014.65 1014.65 1014.64 1014.66 1014.70 1014.77 1014.86 1014.94 1015.00 1015.02 1014.98 1014.88 1014.73 1014.55
1010.22 1010.93 1011.86 1012.89 1013.89 1014.70 1015.19 1015.27 1014.90 1014.13 1013.06 1011.84 1010.62 1009.54 1008.72 1008.22 1008.07 1008.21 1008.57 1009.07 1009.62 1010.16 1010.65 1011.08 1011.46 1011.80 1012.14 1012.49 1012.85 1013.21 1013.55 1013.86 1014.10 1014.27 1014.37 1014.42 1014.44 1014.45 1014.47 1014.53 1014.63 1014.75 1014.88 1014.99 1015.08 1015.12 1015.09 1015.01 1014.88
Thickness
5859 5861 5858 5846 5823 5809 5798 5803 5810 5806 5806 5814 5814 5805 5790 5782 5770 5757 5783 5792 5789 5783 5776 5772 5771 5772 5772 5773 5773 5773 5773 5773 5773 5772 5771 5771 5772 5772 5771 5771 5770 5769 5769 5768 5767 5766 5765 5765 5764
5869 5867 5855 5841 5813 5792 5791 5805 5804 5806 5813 5818 5813 5804 5791 5783 5788 5784 5788 5791 5790 5784 5777 5773 5771 5771 5772 5772 5771 5771 5771 5771 5771 5770 5770 5770 5770 5770 5770 5769 5768 5768 5767 5766 5766 5765 5764 5763 5763
5869 5869 5849 5837 5818 5799 5794 5808 5809 5815 5822 5816 5804 5801 5791 5783 5788 5788 5792 5795 5791 5784 5777 5772 5771 5771 5771 5771 5770 5770 5769 5769 5769 5769 5768 5768 5768 5768 5767 5767 5767 5766 5766 5765 5764 5764 5763 5762 5762
5868 5862 5854 5834 5813 5816 5814 5816 5819 5814 5816 5817 5807 5791 5791 5797 5794 5794 5798 5797 5791 5786 5779 5772 5771 5770 5770 5770 5769 5769 5768 5768 5768 5768 5767 5766 5766 5766 5766 5765 5765 5765 5765 5764 5763 5763 5762 5761 5761
5871 5856 5836 5822 5817 5823 5827 5829 5825 5813 5809 5810 5802 5785 5782 5797 5802 5801 5799 5798 5793 5788 5781 5774 5771 5770 5770 5769 5769 5768 5767 5767 5766 5766 5765 5765 5764 5764 5764 5764 5764 5764 5763 5763 5762 5762 5761 5761 5761
5864 5859 5827 5814 5816 5825 5831 5834 5826 5815 5810 5809 5800 5786 5783 5799 5800 5800 5801 5799 5796 5791 5783 5775 5772 5771 5770 5769 5768 5768 5767 5767 5766 5766 5765 5764 5764 5764 5763 5763 5763 5763 5762 5762 5762 5761 5761 5760 5761
5863 5852 5835 5828 5820 5821 5830 5837 5825 5816 5811 5811 5810 5789 5787 5797 5802 5803 5802 5800 5798 5793 5787 5781 5775 5772 5770 5769 5768 5767 5766 5766 5766 5765 5765 5764 5764 5763 5763 5763 5762 5762 5762 5762 5761 5761 5761 5761 5761
5888 5865 5844 5835 5823 5821 5836 5837 5834 5824 5816 5826 5820 5794 5785 5797 5805 5805 5802 5799 5797 5794 5790 5786 5782 5777 5774 5771 5769 5768 5767 5766 5766 5766 5765 5765 5764 5763 5763 5763 5763 5762 5762 5762 5762 5761 5761 5761 5762
5897 5859 5837 5838 5831 5829 5841 5834 5834 5836 5826 5824 5823 5811 5805 5809 5808 5801 5796 5793 5792 5792 5791 5789 5787 5783 5780 5777 5772 5770 5768 5767 5767 5767 5766 5765 5765 5765 5764 5763 5763 5763 5763 5762 5762 5761 5761 5761 5762
5884 5850 5846 5856 5853 5843 5842 5836 5833 5827 5816 5811 5810 5812 5813 5810 5804 5797 5792 5788 5787 5788 5790 5790 5788 5786 5784 5782 5776 5774 5773 5769 5769 5769 5769 5768 5767 5767 5766 5764 5764 5763 5763 5763 5763 5762 5761 5762 5764
5881 5860 5862 5864 5864 5857 5845 5841 5843 5826 5811 5811 5806 5807 5810 5807 5802 5798 5794 5792 5789 5790 5791 5791 5788 5786 5785 5783 5780 5778 5776 5773 5772 5772 5771 5771 5770 5769 5767 5766 5765 5765 5765 5765 5764 5764 5764 5765 5766
5878 5873 5872 5868 5869 5861 5851 5846 5839 5832 5824 5829 5823 5818 5812 5807 5803 5800 5796 5794 5793 5792 5791 5792 5789 5786 5784 5783 5782 5781 5779 5777 5775 5773 5773 5772 5772 5771 5770 5770 5769 5768 5768 5768 5768 5768 5769 5769 5770
5874 5872 5875 5874 5871 5865 5857 5846 5839 5833 5838 5836 5829 5821 5814 5810 5808 5807 5804 5800 5796 5792 5792 5791 5789 5785 5783 5782 5781 5782 5781 5780 5777 5776 5774 5773 5773 5772 5771 5771 5771 5771 5771 5770 5771 5771 5772 5771 5771
5879 5876 5873 5873 5868 5865 5851 5845 5840 5834 5841 5833 5826 5820 5818 5815 5812 5808 5804 5800 5797 5794 5793 5792 5789 5786 5783 5781 5780 5781 5782 5778 5778 5777 5775 5774 5773 5772 5772 5771 5772 5772 5772 5772 5772 5772 5772 5772 5771
5882 5865 5861 5867 5868 5865 5854 5835 5838 5843 5842 5831 5826 5823 5821 5819 5817 5811 5808 5804 5801 5798 5796 5794 5791 5789 5785 5783 5782 5783 5783 5782 5780 5777 5776 5774 5773 5772 5772 5772 5772 5772 5773 5773 5773 5773 5772 5772 5771
5873 5856 5842 5860 5870 5868 5847 5820 5841 5851 5842 5831 5828 5825 5822 5820 5820 5818 5814 5810 5807 5803 5798 5796 5797 5791 5787 5785 5783 5784 5784 5782 5781 5779 5777 5775 5774 5773 5772 5772 5772 5773 5773 5773 5772 5772 5771 5770 5769
5854 5843 5844 5856 5873 5868 5851 5831 5847 5856 5845 5834 5831 5828 5824 5821 5822 5822 5820 5815 5811 5806 5801 5797 5796 5792 5790 5788 5786 5784 5783 5782 5781 5780 5778 5777 5775 5774 5774 5773 5773 5773 5773 5773 5773 5771 5769 5767 5767
5843 5850 5853 5853 5867 5865 5851 5844 5851 5857 5851 5841 5837 5833 5828 5823 5824 5826 5824 5820 5815 5809 5804 5800 5797 5794 5792 5790 5787 5785 5784 5783 5782 5780 5779 5777 5776 5775 5774 5774 5774 5773 5772 5771 5771 5769 5769 5767 5766
5869 5859 5853 5859 5872 5861 5852 5848 5853 5858 5854 5847 5841 5837 5833 5829 5830 5830 5826 5823 5817 5811 5806 5802 5798 5796 5793 5790 5786 5783 5782 5782 5782 5782 5780 5779 5777 5776 5775 5774 5773 5773 5771 5770 5770 5768 5766 5765 5765
5869 5856 5855 5863 5873 5862 5849 5850 5860 5862 5858 5855 5848 5843 5838 5834 5830 5828 5826 5823 5818 5813 5809 5805 5801 5798 5795 5792 5789 5787 5785 5785 5784 5783 5781 5780 5778 5776 5776 5773 5773 5773 5771 5769 5768 5767 5764 5763 5765
5861 5857 5858 5857 5866 5866 5852 5836 5851 5862 5866 5863 5860 5855 5849 5841 5835 5831 5828 5825 5822 5817 5813 5810 5804 5801 5798 5795 5792 5790 5786 5784 5783 5782 5780 5780 5778 5777 5775 5774 5773 5772 5771 5768 5767 5766 5764 5760 5762
5850 5872 5868 5862 5848 5840 5846 5816 5840 5855 5855 5858 5859 5858 5855 5852 5846 5839 5833 5828 5825 5822 5819 5814 5808 5804 5801 5798 5793 5789 5783 5779 5781 5781 5780 5780 5778 5776 5775 5773 5772 5771 5770 5768 5767 5767 5765 5761 5757
5863 5876 5869 5862 5848 5836 5842 5822 5830 5852 5846 5853 5861 5863 5862 5859 5853 5846 5841 5835 5832 5829 5824 5818 5812 5807 5803 5799 5795 5790 5786 5785 5784 5783 5780 5779 5778 5776 5775 5773 5772 5770 5768 5767 5766 5765 5764 5762 5759
5875 5867 5859 5855 5842 5811 5830 5822 5816 5837 5844 5852 5860 5866 5867 5865 5859 5853 5849 5843 5837 5834 5828 5822 5814 5808 5805 5801 5797 5792 5788 5786 5782 5780 5778 5777 5776 5775 5774 5772 5770 5769 5767 5765 5764 5763 5762 5761 5759
5863 5841 5817 5809 5806 5805 5837 5831 5828 5854 5863 5863 5865 5868 5871 5869 5862 5855 5850 5844 5839 5835 5831 5825 5817 5810 5807 5803 5799 5795 5791 5788 5784 5781 5779 5777 5775 5773 5771 5771 5769 5767 5766 5765 5763 5761 5759 5758 5756
5854 5845 5816 5797 5798 5812 5831 5825 5843 5872 5876 5879 5878 5875 5873 5870 5866 5860 5854 5849 5843 5839 5834 5828 5820 5813 5810 5805 5801 5798 5795 5791 5787 5784 5782 5779 5775 5773 5772 5769 5767 5765 5764 5763 5761 5759 5757 5756 5755
5846 5846 5856 5836 5825 5814 5819 5832 5848 5867 5871 5873 5874 5873 5871 5869 5867 5863 5859 5854 5848 5843 5837 5832 5823 5817 5812 5808 5803 5799 5796 5793 5789 5786 5783 5780 5776 5773 5770 5768 5766 5764 5762 5760 5758 5756 5754 5753 5752
5861 5856 5846 5828 5804 5798 5811 5817 5824 5842 5853 5864 5868 5869 5870 5870 5867 5865 5862 5858 5853 5848 5842 5835 5828 5820 5815 5811 5806 5802 5797 5794 5790 5786 5782 5778 5775 5772 5769 5766 5764 5762 5760 5758 5756 5754 5753 5751 5749
5844 5843 5840 5833 5824 5800 5790 5806 5848 5848 5854 5858 5865 5869 5869 5869 5867 5863 5862 5860 5856 5851 5844 5835 5829 5822 5817 5813 5808 5804 5799 5795 5791 5786 5782 5778 5775 5771 5767 5764 5762 5759 5757 5755 5753 5751 5750 5747 5745
5851 5845 5840 5818 5813 5818 5806 5812 5859 5862 5864 5862 5867 5869 5868 5869 5869 5866 5863 5859 5853 5848 5843 5836 5830 5823 5818 5814 5809 5804 5800 5796 5791 5786 5782 5778 5774 5770 5767 5763 5760 5757 5754 5752 5749 5747 5746 5743 5741